Regional Weather Roundup
Issued by NWS State College, PA

Home | Current Version | Previous Version | Text Only | Print | Product List | Glossary On
Versions: 1 2 3 4 5 6 7 8 9 10 11 12 13 14 15 16 17 18 19 20 21 22 23 24 25 26 27 28 29 30 31 32 33 34 35 36 37 38 39 40 41 42 43 44 45 46 47 48 49 50
000
ASUS41 KCTP 051010
RWRCTP

REGIONAL WEATHER ROUNDUP
NATIONAL WEATHER SERVICE STATE COLLEGE PA
600 AM EDT TUE MAY 05 2015

Note: "fair" indicates few or no clouds below 12,000 feet with no
significant weather and/or obstructions to visibility.

* = STATION THAT DOES NOT REPORT PRECIPITATION /E.G. RAIN...SNOW...ETC/
    THUNDER OR FOG.

PAZ002>004-007>009-013>016-020>023-029>032-051100-
WESTERN PENNSYLVANIA

CITY           SKY/WX    TMP DP  RH WIND       PRES   REMARKS
ERIE           FOG       51  50  96 CALM      30.24R VSB 1/4
MEADVILLE      FOG       56  55  97 NE3       30.24R VSB 1
FRANKLIN*      CLOUDY    54  50  87 CALM      30.26R VSB 1/2
NEW CASTLE     FOG       55  55 100 CALM      30.25R VSB<1/4
BEAVER COUNTY  NOT AVBL
BUTLER*        CLOUDY    55  54  94 CALM      30.26R
PITTSBURGH INT CLOUDY    60  57  89 CALM      30.23R
PITTSBURGH     CLOUDY    62  54  74 S3        30.23R
INDIANA*       CLOUDY    59  57  94 CALM      30.27S
LATROBE        CLOUDY    59  59 100 CALM      30.25S
WASHINGTON CO* CLOUDY    59  57  94 CALM      30.26R
$$

PAZ004>006-010>012-017>019-024>028-033>037-041-042-045-046-049>053-051100-
CENTRAL PENNSYLVANIA

CITY           SKY/WX    TMP DP  RH WIND       PRES   REMARKS
BRADFORD       CLOUDY    58  55  90 NW3       30.26R
DUBOIS         FOG       56  54  93 CALM      30.24S VSB 1/4
CLEARFIELD     MOCLDY    58  55  90 CALM      30.25R
JOHNSTOWN      MOCLDY    60  53  77 CALM      30.25R
ALTOONA        MOCLDY    63  54  72 CALM      30.25R
STATE COLLEGE  CLEAR     63  55  77 CALM      30.24R
WILLIAMSPORT   PTCLDY    62  54  74 W5        30.19R
SELINSGROVE    MOCLDY    61  56  83 N3        30.20R
FT INDIANTOWN  CLOUDY    56  51  83 CALM      30.19R
CAPITAL CITY   PTCLDY    61  52  72 CALM      30.19R
HARRISBURG     MOCLDY    60  53  77 CALM      30.19R
YORK           CLOUDY    54  51  90 CALM      30.20R
$$

PAZ038>040-043-044-047-048-054-055-060>062-067>071-051100-
EASTERN PENNSYLVANIA

CITY           SKY/WX    TMP DP  RH WIND       PRES   REMARKS
SCRANTON       CLOUDY    67  54  63 N7        30.19R
MOUNT POCONO   MOCLDY    61  48  62 NW6       30.21R
ALLENTOWN      PTCLDY    56  50  80 W3        30.17S
QUAKERTOWN*    SUNNY     54  50  87 CALM      30.19R
READING        PTCLDY    58  50  75 CALM      30.18R
LANCASTER      PTCLDY    55  50  83 SE3       30.19R
COATESVILLE    SUNNY     59  54  82 W6        30.20R
POTTSTOWN      PTCLDY    56  51  84 CALM      30.19R
BLUE BELL      CLEAR     59  54  82 CALM      30.17S
DOYLESTOWN     CLEAR     59  51  75 W3        30.17R
WILLOW GROVE   NOT AVBL
NORTH PHILA    CLEAR     63  50  62 SW6       30.19R
PHILADELPHIA   PTCLDY    62  53  72 SW3       30.19R
$$



USA.gov is the U.S. government's official web portal to all federal, state and local government web resources and services.